Radiation Dose at Monitoring Post of Fukushima Daini Nuclear Power Station
Date,Time,MP-1(microSv/h),MP-2(microSv/h),MP-3(microSv/h),MP-4(microSv/h),MP-5(microSv/h),MP-6(microSv/h),MP-7(microSv/h),Wind Direction,Wind Velocity(m/s),Rain
2016/12/23,00:00,0.384,0.233,0.401,0.372,0.340,0.192,0.166,south-southwest,10.9,Yes
2016/12/23,00:10,0.383,0.233,0.401,0.373,0.340,0.193,0.164,south-southwest,11.7,Yes
2016/12/23,00:20,0.381,0.232,0.398,0.371,0.339,0.193,0.165,south-southwest,10.6,Yes
2016/12/23,00:30,0.382,0.233,0.399,0.372,0.340,0.194,0.166,south-southwest,11.4,Yes
2016/12/23,00:40,0.380,0.232,0.397,0.370,0.339,0.193,0.164,south-southwest,11.0,Yes
2016/12/23,00:50,0.380,0.232,0.397,0.367,0.338,0.193,0.163,south-southwest,9.4,Yes
2016/12/23,01:00,0.380,0.231,0.394,0.367,0.338,0.193,0.164,south-southwest,9.5,Yes
2016/12/23,01:10,0.379,0.232,0.394,0.370,0.338,0.192,0.164,south-southwest,10.2,Yes
2016/12/23,01:20,0.376,0.232,0.390,0.366,0.338,0.192,0.164,south-southwest,8.3,Yes
2016/12/23,01:30,0.375,0.231,0.389,0.361,0.334,0.191,0.162,south-southwest,7.3,Yes
2016/12/23,01:40,0.372,0.230,0.384,0.359,0.338,0.189,0.161,south,11.0,Yes
2016/12/23,01:50,0.375,0.229,0.387,0.361,0.334,0.190,0.163,south-southwest,11.8,Yes
2016/12/23,02:00,0.372,0.232,0.385,0.360,0.337,0.191,0.162,south-southwest,8.7,Yes
2016/12/23,02:10,0.374,0.230,0.387,0.361,0.335,0.190,0.162,southwest,8.6,Yes
2016/12/23,02:20,0.373,0.231,0.387,0.361,0.336,0.189,0.161,west-southwest,4.9,Yes
2016/12/23,02:30,0.374,0.230,0.387,0.359,0.336,0.189,0.162,west-northwest,7.8,Yes
2016/12/23,02:40,0.373,0.231,0.386,0.363,0.339,0.190,0.162,west-northwest,6.8,Yes
2016/12/23,02:50,0.377,0.230,0.390,0.360,0.337,0.190,0.162,northwest,6.6,No
2016/12/23,03:00,0.375,0.231,0.388,0.364,0.340,0.190,0.161,northwest,7.2,No
2016/12/23,03:10,0.376,0.231,0.389,0.359,0.336,0.189,0.162,north-northwest,6.4,No
2016/12/23,03:20,0.374,0.231,0.389,0.364,0.339,0.189,0.161,northwest,6.3,No
2016/12/23,03:30,0.375,0.229,0.389,0.361,0.339,0.188,0.160,northwest,7.0,No
2016/12/23,03:40,0.376,0.230,0.389,0.360,0.338,0.188,0.160,west-northwest,7.3,No
2016/12/23,03:50,0.374,0.228,0.387,0.362,0.337,0.188,0.161,northwest,5.9,No
2016/12/23,04:00,0.376,0.229,0.389,0.360,0.336,0.188,0.160,north,6.2,No
2016/12/23,04:10,0.375,0.230,0.387,0.362,0.338,0.187,0.159,north,7.2,No
2016/12/23,04:20,0.376,0.228,0.391,0.359,0.337,0.188,0.160,north,6.6,No
2016/12/23,04:30,0.375,0.229,0.387,0.362,0.338,0.188,0.159,north,4.8,No
2016/12/23,04:40,0.376,0.228,0.390,0.361,0.338,0.186,0.159,north,2.9,No
2016/12/23,04:50,0.374,0.229,0.386,0.363,0.337,0.188,0.159,west-northwest,4.7,No
2016/12/23,05:00,0.375,0.228,0.388,0.362,0.336,0.187,0.159,west-northwest,6.0,No
2016/12/23,05:10,0.376,0.229,0.389,0.359,0.335,0.188,0.159,northwest,6.2,No
2016/12/23,05:20,0.374,0.228,0.389,0.364,0.338,0.187,0.160,northwest,5.8,No
2016/12/23,05:30,0.378,0.228,0.390,0.362,0.336,0.188,0.158,west-northwest,5.5,No
2016/12/23,05:40,0.375,0.229,0.388,0.362,0.337,0.188,0.158,northwest,6.2,No
2016/12/23,05:50,0.376,0.229,0.390,0.360,0.336,0.188,0.158,north-northwest,7.4,No
2016/12/23,06:00,0.375,0.230,0.388,0.361,0.337,0.188,0.159,northwest,7.0,No
2016/12/23,06:10,0.376,0.228,0.392,0.362,0.337,0.188,0.160,northwest,7.3,No
2016/12/23,06:20,0.376,0.230,0.389,0.362,0.337,0.188,0.158,northwest,6.7,No
2016/12/23,06:30,0.376,0.229,0.393,0.363,0.337,0.188,0.160,northwest,7.4,No
2016/12/23,06:40,0.377,0.229,0.390,0.361,0.336,0.188,0.159,northwest,6.2,No
2016/12/23,06:50,0.376,0.229,0.391,0.362,0.338,0.188,0.159,northwest,7.4,No
2016/12/23,07:00,0.380,0.229,0.391,0.362,0.336,0.188,0.160,northwest,7.8,No
2016/12/23,07:10,0.377,0.231,0.390,0.364,0.336,0.188,0.159,west-northwest,8.6,No
2016/12/23,07:20,0.379,0.229,0.393,0.363,0.338,0.190,0.160,west-northwest,10.2,No
2016/12/23,07:30,0.378,0.229,0.391,0.362,0.337,0.190,0.160,west,12.9,No
2016/12/23,07:40,0.378,0.229,0.394,0.364,0.339,0.189,0.161,west,14.7,No
2016/12/23,07:50,0.379,0.229,0.391,0.362,0.337,0.190,0.159,west,14.5,No
2016/12/23,08:00,0.377,0.230,0.394,0.367,0.339,0.190,0.161,west-northwest,14.3,No
2016/12/23,08:10,0.379,0.229,0.393,0.365,0.338,0.189,0.161,west-northwest,13.7,No
2016/12/23,08:20,0.379,0.230,0.392,0.365,0.339,0.189,0.161,west-northwest,10.0,No
2016/12/23,08:30,0.380,0.230,0.391,0.366,0.340,0.191,0.160,west,14.0,No
2016/12/23,08:40,0.382,0.230,0.392,0.363,0.337,0.190,0.160,west,15.3,No
2016/12/23,08:50,0.380,0.230,0.395,0.368,0.339,0.189,0.160,west-northwest,14.8,No
2016/12/23,09:00,0.383,0.231,0.395,0.365,0.338,0.190,0.161,west-northwest,15.0,No
2016/12/23,09:10,0.381,0.231,0.395,0.364,0.337,0.191,0.160,west,14.7,No
2016/12/23,09:20,0.381,0.231,0.396,0.365,0.340,0.191,0.160,west-northwest,11.9,No
2016/12/23,09:30,0.382,0.231,0.394,0.362,0.337,0.191,0.161,west,14.7,No
2016/12/23,09:40,0.381,0.231,0.396,0.366,0.341,0.191,0.160,west,16.0,No
2016/12/23,09:50,0.380,0.229,0.394,0.365,0.337,0.190,0.162,west-northwest,20.2,No
2016/12/23,10:00,0.380,0.230,0.394,0.366,0.338,0.190,0.161,west-northwest,16.5,No
2016/12/23,10:10,0.380,0.230,0.395,0.364,0.339,0.191,0.162,west,18.0,No
2016/12/23,10:20,0.379,0.230,0.393,0.368,0.337,0.190,0.161,west-northwest,18.5,No
2016/12/23,10:30,0.380,0.229,0.395,0.365,0.339,0.191,0.163,west-northwest,12.9,No
2016/12/23,10:40,0.378,0.229,0.394,0.365,0.336,0.191,0.161,west,23.0,No
2016/12/23,10:50,0.381,0.230,0.393,0.363,0.339,0.192,0.162,west-northwest,19.6,No
2016/12/23,11:00,0.381,0.231,0.396,0.367,0.338,0.192,0.161,west,18.8,No
2016/12/23,11:10,0.381,0.231,0.395,0.365,0.340,0.192,0.162,west-northwest,17.4,No
2016/12/23,11:20,0.382,0.230,0.395,0.367,0.339,0.191,0.161,west-northwest,16.2,No
2016/12/23,11:30,0.381,0.229,0.394,0.367,0.341,0.191,0.163,west-northwest,15.5,No
2016/12/23,11:40,0.384,0.231,0.395,0.368,0.339,0.191,0.161,west,17.4,No
2016/12/23,11:50,0.380,0.231,0.396,0.365,0.338,0.192,0.162,west-northwest,18.7,No
2016/12/23,12:00,0.384,0.231,0.395,0.368,0.338,0.191,0.162,west-northwest,14.5,No
2016/12/23,12:10,0.380,0.230,0.398,0.366,0.340,0.191,0.162,west,21.2,No
2016/12/23,12:20,0.381,0.231,0.396,0.365,0.341,0.191,0.163,west-northwest,17.0,No
2016/12/23,12:30,0.379,0.232,0.395,0.366,0.341,0.192,0.162,west-northwest,18.6,No
2016/12/23,12:40,0.381,0.232,0.395,0.368,0.341,0.192,0.163,west,20.7,No
2016/12/23,12:50,0.382,0.231,0.395,0.365,0.339,0.191,0.163,west,15.0,No
2016/12/23,13:00,0.381,0.231,0.398,0.367,0.341,0.192,0.162,west,15.6,No
2016/12/23,13:10,0.383,0.231,0.395,0.367,0.341,0.192,0.162,west,16.8,No
2016/12/23,13:20,0.381,0.231,0.399,0.365,0.341,0.192,0.162,west-northwest,16.3,No
2016/12/23,13:30,0.381,0.231,0.394,0.366,0.340,0.192,0.161,west,17.9,No
2016/12/23,13:40,0.384,0.232,0.395,0.365,0.339,0.192,0.163,west,19.8,No
2016/12/23,13:50,0.382,0.232,0.396,0.368,0.338,0.191,0.163,west,17.4,No
2016/12/23,14:00,0.383,0.232,0.398,0.366,0.339,0.191,0.164,west-northwest,14.5,No
2016/12/23,14:10,0.383,0.232,0.397,0.367,0.339,0.191,0.163,west,18.3,No
2016/12/23,14:20,0.382,0.231,0.395,0.366,0.339,0.191,0.162,west,15.2,No
2016/12/23,14:30,0.385,0.231,0.397,0.369,0.339,0.191,0.162,west,12.6,No
2016/12/23,14:40,0.384,0.231,0.396,0.366,0.340,0.192,0.163,west-northwest,15.5,No
2016/12/23,14:50,0.383,0.231,0.396,0.369,0.341,0.192,0.164,west,15.8,No
2016/12/23,15:00,0.385,0.233,0.396,0.367,0.340,0.190,0.162,west,16.0,No
2016/12/23,15:10,0.384,0.231,0.395,0.368,0.339,0.191,0.163,west,14.8,No
2016/12/23,15:20,0.381,0.231,0.398,0.368,0.339,0.191,0.162,west,12.7,No
2016/12/23,15:30,0.384,0.231,0.398,0.367,0.341,0.191,0.163,west,12.8,No
2016/12/23,15:40,0.384,0.232,0.397,0.368,0.340,0.191,0.164,west-northwest,9.8,No
2016/12/23,15:50,0.383,0.232,0.397,0.369,0.340,0.191,0.163,west-northwest,11.8,No
2016/12/23,16:00,0.385,0.232,0.397,0.368,0.340,0.192,0.163,west-northwest,9.3,No
2016/12/23,16:10,0.384,0.232,0.396,0.369,0.342,0.191,0.163,northwest,7.3,No
2016/12/23,16:20,0.383,0.232,0.397,0.368,0.341,0.191,0.164,west-northwest,5.9,No
2016/12/23,16:30,0.383,0.233,0.395,0.368,0.342,0.192,0.164,west-northwest,1.7,No
2016/12/23,16:40,0.384,0.231,0.398,0.369,0.340,0.192,0.162,southeast,2.0,No
2016/12/23,16:50,0.383,0.233,0.397,0.368,0.341,0.192,0.163,south-southwest,1.6,No
2016/12/23,17:00,0.383,0.231,0.395,0.367,0.341,0.190,0.164,northeast,1.2,No
2016/12/23,17:10,0.383,0.232,0.396,0.369,0.339,0.191,0.164,northeast,1.0,No
2016/12/23,17:20,0.382,0.231,0.397,0.368,0.341,0.191,0.163,east-northeast,0.8,No
2016/12/23,17:30,0.383,0.232,0.395,0.369,0.339,0.192,0.163,north-northwest,1.9,No
2016/12/23,17:40,0.383,0.232,0.394,0.368,0.339,0.191,0.163,west,2.2,No
2016/12/23,17:50,0.384,0.232,0.398,0.366,0.341,0.193,0.162,north-northwest,2.5,No
2016/12/23,18:00,0.382,0.232,0.394,0.367,0.338,0.191,0.161,north,1.1,No
2016/12/23,18:10,0.383,0.233,0.394,0.368,0.338,0.190,0.163,west-northwest,2.3,No
2016/12/23,18:20,0.383,0.231,0.397,0.366,0.340,0.192,0.162,north,2.5,No
2016/12/23,18:30,0.383,0.231,0.394,0.368,0.339,0.190,0.164,west,3.6,No
2016/12/23,18:40,0.384,0.232,0.395,0.367,0.339,0.192,0.163,west-northwest,2.1,No
2016/12/23,18:50,0.382,0.231,0.396,0.367,0.340,0.192,0.162,west-northwest,2.5,No
2016/12/23,19:00,0.383,0.232,0.394,0.368,0.338,0.191,0.162,west-northwest,1.9,No
2016/12/23,19:10,0.382,0.231,0.394,0.367,0.339,0.191,0.163,west-northwest,3.2,No
2016/12/23,19:20,0.382,0.231,0.397,0.366,0.340,0.190,0.162,west-northwest,7.2,No
2016/12/23,19:30,0.383,0.230,0.394,0.368,0.339,0.191,0.162,west-northwest,5.9,No
2016/12/23,19:40,0.385,0.230,0.396,0.368,0.338,0.191,0.163,northwest,6.4,No
2016/12/23,19:50,0.383,0.231,0.397,0.368,0.339,0.192,0.162,west-northwest,9.2,No
2016/12/23,20:00,0.382,0.232,0.397,0.368,0.339,0.190,0.162,west-northwest,11.0,No
2016/12/23,20:10,0.383,0.231,0.395,0.369,0.339,0.191,0.163,west,7.0,No
2016/12/23,20:20,0.384,0.231,0.397,0.367,0.339,0.191,0.163,west-northwest,8.3,No
2016/12/23,20:30,0.382,0.230,0.395,0.368,0.338,0.191,0.162,west-northwest,7.8,No
2016/12/23,20:40,0.383,0.232,0.395,0.368,0.338,0.192,0.162,northwest,8.1,No
2016/12/23,20:50,0.382,0.232,0.397,0.368,0.340,0.191,0.163,northwest,8.5,No
2016/12/23,21:00,0.382,0.231,0.396,0.366,0.339,0.191,0.163,west-northwest,7.3,No
2016/12/23,21:10,0.383,0.232,0.396,0.369,0.340,0.191,0.162,west-northwest,6.5,No
2016/12/23,21:20,0.385,0.230,0.396,0.367,0.340,0.191,0.163,west-northwest,6.1,No
2016/12/23,21:30,0.383,0.230,0.396,0.366,0.339,0.191,0.162,northwest,5.4,No
2016/12/23,21:40,0.383,0.232,0.394,0.368,0.338,0.191,0.163,northwest,4.3,No
2016/12/23,21:50,0.383,0.231,0.395,0.368,0.337,0.191,0.163,west-northwest,6.5,No
2016/12/23,22:00,0.383,0.232,0.396,0.366,0.339,0.191,0.163,northwest,4.9,No
2016/12/23,22:10,0.382,0.231,0.395,0.366,0.338,0.190,0.163,north-northwest,5.2,No
2016/12/23,22:20,0.383,0.231,0.396,0.369,0.339,0.192,0.162,northwest,3.0,No
2016/12/23,22:30,0.385,0.232,0.398,0.367,0.339,0.192,0.162,north,2.7,No
2016/12/23,22:40,0.383,0.231,0.396,0.367,0.340,0.191,0.162,north,3.2,No
2016/12/23,22:50,0.382,0.231,0.394,0.367,0.339,0.191,0.163,northwest,0.5,No
2016/12/23,23:00,0.384,0.231,0.396,0.367,0.339,0.191,0.163,north-northeast,2.4,No
2016/12/23,23:10,0.382,0.231,0.394,0.366,0.339,0.192,0.162,north-northeast,2.7,No
2016/12/23,23:20,0.383,0.230,0.395,0.368,0.339,0.191,0.162,north-northeast,1.9,No
2016/12/23,23:30,0.383,0.231,0.397,0.369,0.339,0.191,0.162,north,1.6,No
2016/12/23,23:40,0.382,0.230,0.397,0.367,0.340,0.190,0.164,north-northwest,3.0,No
2016/12/23,23:50,0.384,0.231,0.394,0.368,0.339,0.191,0.162,north,2.5,No
